USA 283

Last updated on Jan. 16, 2021, 6:28 a.m. UTC

1 43339U 18036A   21015.63358631 -.00000324  00000-0  00000+0 0  9993
2 43339   0.0070 235.4739 0000499 118.5156 123.4635  1.00268365  5474
UTC
Height (km)
Latitude
Longitude
Inclination
Orbital Period
UTC large
Height (km)
Speed (km/s)
/
Latitude / Longitude
Inclination (degrees)
Orbital Period (minutes)
Azimuth
Elevation
Range (km)
Doppler Factor
iOS Compass Heading
iOS Angle

Next 30 passes for location: Hong Kong

Rise time Rise Azimuth (degrees) Set time Set Azimuth (degrees) Duration Max altitude (degrees)

No matching passes for this satellites